Wind_Speed
19 17 16 15 15 16 16 17 17 18 18 18 18 19 20 20 20 21 22 22 23 24 24 24 24 24 24 25 25 25 24 24 24 24 25 26 26 27 28 30 32 34 35 38
18 16 15 15 15 15 16 16 17 17 17 17 18 18 18 18 18 19 21 21 22 22 22 23 23 23 23 24 24 23 23 23 22 23 23 23 24 24 24 26 28 30 32 35
16 15 14 14 14 14 15 15 16 16 17 17 17 16 16 16 17 18 19 20 20 21 22 22 23 23 23 24 24 23 22 22 21 21 21 21 21 21 21 22 23 25 28 31
15 14 13 13 13 13 13 14 15 15 15 15 14 14 14 14 16 17 18 20 21 22 22 23 23 23 23 24 23 22 21 21 20 19 19 19 18 18 18 19 20 22 24 27
14 13 13 12 11 12 12 13 13 13 12 12 12 12 13 14 15 16 18 20 21 22 23 23 23 23 23 23 23 22 20 19 19 18 17 17 16 16 16 16 18 19 21 23
13 12 11 10 9 10 10 11 11 10 10 10 10 11 12 14 15 16 18 20 21 22 22 23 23 23 23 23 23 23 21 20 19 18 17 16 15 14 14 14 15 15 17 19
12 10 9 8 8 8 8 9 9 9 8 9 10 11 12 13 14 16 18 20 21 21 22 22 23 23 23 23 24 23 22 21 20 18 17 16 14 13 12 12 12 12 13 16
11 9 8 7 6 6 6 7 7 7 7 8 8 10 12 13 15 16 18 19 20 20 21 23 23 24 24 24 24 24 23 22 21 19 18 16 14 13 12 11 10 10 10 11
10 8 7 5 4 4 4 5 5 6 6 7 8 10 11 13 15 16 18 18 19 20 21 22 23 24 24 24 24 24 24 24 22 21 20 18 16 14 13 11 10 10 10 10
8 7 6 4 3 2 2 3 4 4 5 6 8 9 11 12 14 16 17 18 20 21 22 22 23 23 24 24 24 24 24 24 23 22 21 19 18 16 14 13 11 10 8 8
7 6 5 4 2 1 0 2 3 4 6 7 8 9 10 12 14 16 17 18 19 21 22 23 23 23 24 24 24 25 25 25 24 23 22 21 20 18 16 15 12 10 8 7
6 5 4 3 2 1 2 2 3 4 6 7 8 9 10 12 14 15 17 18 19 21 22 23 23 23 24 24 24 25 25 25 24 24 23 22 21 20 19 17 14 12 10 9
6 5 5 4 3 2 2 2 2 4 5 7 7 9 10 12 14 15 16 17 19 20 21 22 23 23 23 24 24 25 25 25 25 24 24 22 21 21 21 19 17 14 13 11
6 5 4 4 3 3 2 1 2 3 4 6 7 8 10 12 13 14 15 17 18 19 20 21 22 23 23 24 24 24 25 25 25 25 25 24 23 22 22 21 19 17 15 14
6 5 5 4 3 3 2 1 2 3 4 5 7 8 10 11 12 14 15 16 17 18 20 20 21 22 23 24 24 24 24 25 25 25 25 25 25 24 23 23 22 20 17 15
6 5 4 4 3 2 2 1 1 2 4 5 6 8 9 11 12 13 14 16 17 18 19 20 21 21 22 23 24 24 25 25 25 25 25 25 25 25 25 24 23 22 20 18
5 4 4 3 3 2 1 0 1 2 4 5 6 8 9 10 11 12 14 15 16 17 18 19 20 21 21 22 23 24 24 24 24 25 25 25 25 25 25 25 24 23 22 20
5 4 4 3 3 2 1 1 2 3 4 6 7 8 9 11 12 12 13 14 15 16 17 18 18 19 20 21 22 23 23 24 24 24 25 25 25 25 25 25 25 24 24 23
5 4 4 4 3 3 3 3 4 5 6 7 8 9 10 11 12 13 13 14 14 15 16 16 17 18 19 19 20 21 22 23 23 24 24 24 24 24 25 24 24 24 23 23
6 6 6 6 6 6 6 6 6 7 8 8 9 10 10 11 12 12 13 14 14 15 15 15 16 17 17 18 19 20 21 21 22 22 23 24 23 23 24 24 24 24 23 22
9 8 8 8 8 8 8 8 8 9 9 10 10 11 11 11 12 12 13 13 14 14 15 15 15 16 17 17 18 18 19 20 20 21 21 22 23 23 23 23 23 23 23 22
11 11 11 11 12 11 11 11 11 11 11 11 12 12 12 12 13 13 13 14 14 14 15 15 16 16 16 17 17 17 18 18 19 19 20 20 21 22 22 22 22 22 22 22
14 13 13 13 13 13 13 13 13 13 13 13 14 14 14 14 14 14 14 14 15 15 15 15 16 16 16 17 17 17 17 17 18 18 18 19 19 20 21 21 21 21 21 21
16 16 16 16 15 15 15 15 15 15 16 16 16 16 16 17 17 16 16 16 16 16 16 16 16 17 17 17 17 17 17 17 17 18 18 18 18 18 19 19 19 19 20 19
18 18 18 18 18 18 18 18 18 18 19 19 19 19 19 19 19 19 19 19 19 18 18 18 18 18 18 18 18 18 18 18 18 18 18 18 17 17 17 17 18 18 18 17
21 20 20 20 20 21 21 21 21 22 22 22 22 22 22 22 22 22 22 22 22 21 21 21 21 20 20 20 19 19 19 19 19 19 18 18 17 17 17 16 16 16 16 16
Wind_Direction
244 250 257 266 275 282 290 299 305 312 317 320 322 323 325 327 327 326 327 326 326 325 323 323 322 321 319 317 314 311 307 303 299 295 291 288 282 277 271 264 258 254 251 247
241 249 258 268 277 284 292 302 310 315 320 322 324 326 329 330 331 331 332 332 332 332 332 331 331 329 327 326 323 319 314 310 306 302 297 293 289 283 276 269 261 255 251 247
240 249 259 269 279 287 297 306 312 316 320 323 326 330 333 335 336 336 337 338 340 340 340 339 338 336 335 333 330 326 322 318 313 309 305 299 293 287 281 273 264 259 254 248
236 247 259 270 280 292 302 308 314 318 323 327 333 335 339 339 339 341 344 346 346 346 346 346 345 342 341 341 339 335 330 326 323 319 315 309 300 293 287 280 271 263 256 250
232 245 259 271 285 298 306 312 317 323 329 335 340 342 346 344 344 348 351 352 352 351 351 351 351 350 349 348 347 345 341 337 333 329 325 320 313 303 294 285 277 268 260 253
231 244 257 271 288 302 309 315 323 330 336 344 348 350 352 352 355 357 357 356 356 356 357 358 359 359 358 357 357 356 353 348 344 340 335 329 323 314 304 293 284 275 265 255
230 241 253 273 290 301 309 319 327 336 344 351 354 358 359 360 1 1 1 0 1 2 4 5 6 7 6 4 3 3 1 358 355 351 347 343 338 329 319 308 293 284 275 264
229 236 254 274 288 298 311 325 334 344 352 358 2 2 3 5 7 7 5 5 7 8 10 9 10 10 9 8 8 8 8 7 4 3 360 355 350 344 336 325 311 298 289 278
223 234 251 270 280 294 313 330 345 356 4 7 6 7 9 10 11 11 10 10 10 10 10 10 11 11 11 11 11 11 11 11 11 10 8 7 3 357 350 341 331 317 302 290
219 231 246 255 259 289 324 343 354 4 10 11 10 12 11 12 14 14 14 13 12 12 13 13 12 13 13 15 15 15 15 14 14 14 13 11 9 6 2 358 351 341 324 304
215 224 231 229 228 223 355 22 25 25 20 17 16 17 18 17 15 15 14 13 14 14 15 15 15 15 16 17 17 18 18 17 17 17 16 15 15 14 10 6 2 356 345 331
203 207 206 203 186 158 116 74 46 29 22 18 19 22 19 17 15 14 13 12 12 14 15 16 16 17 18 19 19 19 19 18 18 18 18 18 19 19 18 14 10 4 355 343
189 189 183 173 156 144 124 85 45 28 22 20 21 21 19 17 15 14 13 13 13 14 16 17 18 19 19 19 20 21 21 21 20 20 19 19 20 19 18 16 14 11 7 0
174 170 169 161 154 148 128 79 34 24 22 23 23 20 16 15 15 14 15 15 15 17 18 19 20 20 21 21 22 22 22 22 22 23 23 22 22 20 18 18 17 15 12 10
166 163 161 158 153 146 128 85 37 26 21 19 18 18 16 16 15 15 15 16 16 17 19 19 20 21 22 22 23 23 23 23 23 24 24 24 24 24 23 22 22 21 20 18
163 164 163 160 155 144 124 94 48 21 11 9 10 11 12 13 14 15 15 15 14 15 17 18 19 20 21 22 23 23 24 23 23 23 24 25 25 25 25 25 24 25 25 24
168 172 176 175 175 167 144 53 1 356 356 354 355 358 360 3 6 8 9 10 11 13 14 15 16 17 19 21 22 23 23 24 23 23 24 25 25 26 26 27 27 27 27 28
177 183 192 200 209 208 230 298 326 331 335 337 343 347 350 353 357 360 2 4 6 8 10 11 12 13 15 18 19 21 22 22 23 23 24 25 25 26 27 27 28 28 28 29
198 206 213 223 236 243 256 275 295 310 320 326 331 336 339 343 347 352 354 357 359 2 4 6 7 9 10 13 15 17 18 19 21 22 22 23 24 25 26 27 27 27 26 27
220 227 236 246 255 263 269 277 286 297 303 312 317 323 328 332 336 340 344 347 350 352 356 359 1 2 4 6 9 11 13 14 16 17 19 21 22 23 24 25 26 26 26 26
237 242 247 253 258 263 271 276 281 286 296 302 307 312 316 321 326 330 333 337 340 343 346 349 351 353 356 359 1 3 6 8 10 12 15 18 19 20 21 22 24 24 25 26
245 249 253 257 261 266 272 276 279 284 289 294 299 304 309 313 318 322 325 328 331 334 337 340 342 344 347 350 352 355 358 1 4 6 9 11 14 16 17 18 20 22 23 25
249 253 257 260 265 269 271 274 277 280 284 289 293 298 303 307 311 314 316 319 322 325 328 331 333 335 338 341 344 347 350 352 356 359 1 4 6 9 11 13 16 19 20 22
253 256 259 263 267 270 271 273 275 278 281 284 287 291 295 299 302 305 307 310 313 316 318 321 324 326 329 332 335 337 340 342 345 348 352 354 357 -0 3 5 9 13 16 18
256 258 261 264 267 270 271 273 274 275 278 280 283 286 289 291 294 297 299 302 304 306 309 312 314 316 319 322 325 327 329 332 334 336 340 343 346 349 353 357 359 3 8 12
259 261 263 265 267 268 270 271 273 274 276 278 281 283 286 288 290 292 294 296 297 299 302 304 305 307 309 311 314 316 319 321 324 326 329 332 335 339 342 345 349 353 357 2
Height
5895 5898 5899 5899 5899 5898 5897 5896 5894 5892 5889 5886 5883 5880 5877 5874 5870 5866 5863 5859 5854 5850 5846 5841 5837 5832 5828 5823 5819 5815 5811 5808 5805 5803 5800 5798 5797 5796 5796 5796 5797 5799 5801 5803
5894 5895 5896 5896 5896 5896 5894 5893 5891 5889 5886 5883 5881 5878 5875 5871 5868 5864 5860 5856 5852 5848 5843 5838 5833 5828 5824 5819 5814 5810 5806 5802 5799 5796 5794 5792 5790 5788 5787 5787 5788 5789 5791 5793
5891 5894 5893 5894 5894 5893 5892 5890 5888 5886 5883 5881 5878 5876 5873 5870 5866 5863 5859 5854 5850 5845 5841 5836 5831 5825 5821 5816 5811 5806 5801 5798 5794 5791 5788 5786 5784 5782 5781 5780 5780 5781 5782 5784
5889 5890 5891 5892 5891 5891 5889 5888 5886 5883 5881 5879 5877 5875 5872 5868 5865 5861 5857 5853 5848 5844 5839 5834 5829 5823 5818 5813 5808 5803 5798 5794 5790 5787 5783 5781 5778 5776 5775 5774 5774 5774 5775 5777
5887 5888 5889 5889 5889 5888 5887 5885 5883 5881 5879 5877 5875 5873 5872 5868 5864 5860 5856 5852 5847 5843 5838 5832 5827 5822 5816 5811 5806 5800 5795 5791 5787 5783 5780 5777 5774 5772 5770 5769 5768 5768 5768 5770
5885 5886 5887 5887 5887 5886 5885 5884 5882 5880 5878 5876 5874 5872 5870 5867 5863 5860 5856 5851 5847 5842 5837 5831 5826 5821 5816 5810 5805 5799 5794 5789 5785 5781 5777 5774 5771 5769 5767 5765 5764 5763 5763 5764
5884 5885 5885 5886 5885 5885 5884 5883 5881 5879 5877 5875 5873 5871 5870 5866 5863 5859 5855 5851 5847 5842 5837 5832 5826 5821 5816 5810 5805 5799 5794 5789 5784 5780 5776 5772 5769 5767 5764 5762 5761 5760 5759 5759
5882 5884 5884 5884 5884 5883 5882 5881 5880 5879 5876 5875 5873 5871 5870 5866 5862 5859 5855 5851 5847 5842 5838 5832 5827 5822 5817 5811 5805 5800 5794 5789 5784 5780 5775 5772 5768 5765 5763 5760 5758 5757 5756 5755
5880 5882 5882 5882 5882 5882 5881 5880 5879 5878 5876 5874 5873 5871 5869 5865 5862 5859 5856 5852 5848 5843 5838 5833 5828 5823 5818 5812 5807 5801 5796 5790 5785 5780 5776 5772 5768 5765 5762 5759 5756 5754 5753 5752
5879 5881 5881 5881 5881 5881 5880 5879 5879 5877 5876 5874 5873 5871 5869 5866 5863 5860 5856 5853 5849 5844 5839 5834 5830 5824 5819 5814 5808 5803 5798 5792 5787 5782 5777 5773 5768 5765 5761 5758 5755 5753 5751 5750
5878 5879 5880 5880 5880 5880 5880 5880 5878 5877 5876 5875 5873 5874 5869 5867 5864 5861 5857 5854 5850 5845 5841 5836 5831 5826 5821 5816 5810 5805 5800 5794 5789 5784 5779 5774 5770 5765 5762 5758 5756 5753 5751 5749
5877 5878 5879 5879 5879 5879 5879 5879 5878 5878 5877 5875 5873 5875 5870 5867 5864 5861 5858 5855 5851 5847 5842 5837 5833 5828 5823 5818 5812 5807 5802 5797 5791 5786 5781 5776 5772 5767 5763 5759 5756 5753 5751 5748
5876 5878 5878 5879 5881 5880 5879 5879 5878 5878 5877 5875 5874 5875 5870 5868 5865 5862 5859 5856 5852 5848 5844 5839 5834 5829 5825 5820 5815 5810 5805 5799 5794 5789 5784 5779 5774 5770 5765 5761 5757 5754 5751 5748
5876 5877 5878 5879 5879 5879 5879 5879 5878 5878 5877 5876 5875 5873 5871 5868 5866 5863 5860 5857 5853 5849 5845 5841 5836 5832 5827 5822 5817 5812 5807 5802 5797 5792 5787 5782 5777 5772 5768 5763 5759 5755 5751 5748
5875 5876 5877 5878 5878 5879 5879 5879 5879 5878 5877 5876 5875 5873 5872 5869 5867 5864 5861 5858 5854 5851 5847 5843 5838 5834 5829 5825 5820 5815 5810 5805 5800 5795 5790 5785 5780 5775 5770 5766 5761 5756 5753 5749
5875 5876 5877 5878 5878 5879 5879 5879 5878 5878 5877 5876 5875 5874 5872 5870 5867 5865 5862 5859 5855 5852 5848 5844 5840 5836 5831 5827 5822 5818 5813 5808 5803 5798 5793 5788 5783 5779 5774 5768 5764 5759 5755 5751
5875 5876 5877 5878 5878 5879 5879 5879 5878 5878 5877 5876 5875 5875 5872 5870 5868 5865 5862 5859 5856 5853 5849 5846 5842 5838 5834 5829 5825 5820 5816 5811 5806 5802 5797 5792 5787 5782 5777 5772 5767 5763 5758 5754
5875 5876 5877 5878 5879 5879 5881 5878 5878 5878 5877 5876 5875 5873 5872 5870 5867 5865 5863 5860 5857 5854 5850 5847 5843 5839 5835 5831 5827 5823 5818 5814 5809 5805 5800 5795 5790 5786 5781 5776 5771 5766 5762 5758
5875 5876 5876 5877 5877 5878 5879 5878 5877 5877 5876 5875 5874 5873 5871 5869 5867 5865 5862 5860 5857 5854 5851 5848 5844 5841 5837 5833 5829 5825 5821 5817 5812 5808 5803 5799 5794 5789 5784 5780 5775 5770 5766 5761
5874 5875 5876 5876 5876 5876 5878 5877 5876 5876 5875 5874 5872 5871 5870 5868 5866 5865 5862 5859 5857 5854 5851 5848 5845 5841 5838 5834 5831 5827 5823 5819 5815 5810 5806 5801 5797 5792 5788 5783 5779 5774 5770 5765
5872 5872 5873 5874 5874 5874 5875 5874 5875 5875 5875 5872 5871 5869 5868 5866 5865 5863 5860 5858 5856 5853 5851 5848 5845 5842 5838 5835 5832 5828 5824 5821 5817 5813 5808 5804 5800 5795 5791 5786 5782 5778 5773 5769
5869 5870 5871 5871 5871 5874 5872 5872 5872 5872 5870 5869 5868 5867 5865 5864 5862 5861 5859 5856 5854 5852 5849 5847 5844 5841 5838 5835 5832 5828 5825 5822 5818 5814 5810 5806 5802 5798 5794 5789 5785 5781 5776 5772
5866 5867 5867 5869 5870 5869 5868 5868 5868 5868 5867 5866 5865 5864 5863 5861 5860 5858 5856 5854 5852 5850 5848 5845 5843 5840 5837 5835 5831 5828 5825 5822 5819 5815 5811 5808 5804 5800 5796 5792 5788 5784 5780 5776
5862 5863 5864 5864 5864 5865 5864 5864 5864 5864 5863 5862 5861 5860 5859 5858 5856 5855 5853 5851 5849 5847 5845 5843 5841 5838 5836 5833 5830 5827 5824 5821 5818 5815 5812 5808 5805 5801 5798 5794 5790 5786 5783 5779
5858 5858 5859 5859 5860 5860 5860 5860 5859 5859 5858 5857 5856 5856 5855 5854 5852 5851 5849 5848 5846 5844 5842 5840 5838 5836 5833 5831 5828 5825 5823 5820 5817 5814 5811 5808 5805 5802 5798 5795 5792 5788 5785 5781
5852 5853 5854 5854 5855 5855 5854 5854 5854 5853 5853 5852 5851 5850 5849 5848 5847 5846 5844 5843 5841 5839 5838 5836 5834 5832 5830 5827 5825 5823 5820 5818 5815 5812 5810 5807 5804 5801 5798 5795 5792 5789 5786 5783